![](https://secure.gravatar.com/avatar/686c4a390cb673165ed7c2a32b1a0a50.jpg?s=120&d=mm&r=g)
19 Nov
2006
19 Nov
'06
2:09 a.m.
ISS 1 25544U 98067A 06322.98842593 .00018062 00000-0 10640-3 0 937 2 25544 051.6324 109.5666 0011248 231.8242 258.7157 15.78208629457586
6653
Age (days ago)
6653
Last active (days ago)
0 comments
1 participants
participants (1)
-
Dave Larsen PhD